Location: Ca�n Batista
(41.4099°N, 1.7752°E)
Time: 13:49:30
(UTC+00:00)

SL-16 R/B - Pass Details

Date: 03 March 2021
Orbit: 843 x 845 km, 71.0° (Epoch: 21 April)

Event Time Altitude Azimuth Distance (km) Brightness Sun altitude
Rises 19:29:24 0° 238° (WSW) 3,391 6.1 -20.1°
Reaches altitude 10° 19:32:16 10° 252° (WSW) 2,460 5.5 -20.7°
Maximum altitude 19:36:52 25° 306° (NW) 1,642 4.4 -21.5°
Drops below altitude 10° 19:41:29 10° 1° (N) 2,473 4.7 -22.4°
Sets 19:44:24 0° 15° (NNE) 3,413 5.3 -22.9°
